SPOT 7

Last updated on Mon Sep 07 2026 00:02:45 GMT+0000 (Coordinated Universal Time)

1 40053U 14034A 26249.61332054 .00000368 00000+0 84168-4 0 9998 2 40053 98.0555 309.9771 0001353 75.3680 284.7671 14.61016444649020
UTC large
Height (km)
Speed (km/s)
/
Latitude / Longitude
Inclination (degrees)
Orbital Period (minutes)
Azimuth
Elevation
Range (km)
Doppler Factor

Next 0 passes for location: London (51.5072 / 0.1276)

No passes found over London.
SPOT 7